Location: A�t Bou Chrif
(32.7193°N, 5.2385°W)
Time: 00:49:48
(UTC+00:00)

Cosmos 1697 Rocket - Pass Details

Date: 08 August 2020
Orbit: 834 x 842 km, 71.0° (Epoch: 18 September)

Event Time Altitude Azimuth Distance (km) Brightness Sun altitude
Rises 20:53:54 0° 348° (NNW) 3,384 6.6 -19.8°
Reaches altitude 10° 20:56:32 10° 357° (N) 2,447 5.6 -20.2°
Maximum altitude 21:01:43 38° 64° (ENE) 1,258 3.3 -21.1°
Enters shadow 21:02:39 35° 87° (E) 1,313 3.3 -21.3°
